Find Starlink 11472

NORAD ID: 62067 Int'l Des: 2024-217 Owner: SPXS Country: US Constellation: starlink operational
別名: STARLINK-11472 [DTC] celestrak
LEOCIRCULAR

現在のビュー

3D地球を読み込み中...

About Starlink 11472

Starlink 11472 (NORAD 62067) is a starlink constellation satellite (v2 mini d2c) launched Nov 24, 2024 by SPXS of US. It operates in LEO, CIRCULAR orbit with a mass of 960.00 kg.

次回通過

Passes for default location (London). Set your location on the main map for personalized predictions.

高度履歴

Loading altitude history...

軌道要素

1 62067U 24217L 26265.20507852 .00149291 00000-0 12135-2 0 9997
2 62067 53.1578 182.8620 0001116 87.2754 272.8392 15.69740579105968
Epoch: Sep 22, 2026 • Age: 23 hours

現在のステータス

高度 364.1 km
遠地点 / 近地点 N/A
速度 7.70 km/s
衛星直下点 50.96°N, 179.62°W
打ち上げ日 Nov 24, 2024
運用期間 1.8 years
タイプ internet

技術仕様

分類 Payload
質量 960.00 kg
乾燥質量 910.00 kg
長さ 0.30 m
スパン 29.00 m
形状 ? Box + pan
製造者 SPXS
バスタイプ Starlink V2MD
フェーズステータス In Orbit
所有者/国 SPXS/US

Most Searched